GOES 15

Last updated on Wed Sep 09 2026 00:02:48 GMT+0000 (Coordinated Universal Time)

1 36411U 10008A 26251.45764655 .00000001 00000+0 00000+0 0 9991 2 36411 1.5022 81.8767 0005158 80.9876 52.7333 1.00270793 60470
UTC large
Height (km)
Speed (km/s)
/
Latitude / Longitude
Inclination (degrees)
Orbital Period (minutes)
Azimuth
Elevation
Range (km)
Doppler Factor

Next 0 passes for location: London (51.5072 / 0.1276)

No passes found over London.
GOES 15